"Pseudo-MPEC" for P10OvCV

Created 2019 Jun 14 19:09:39 UT using Find_Orb

Click here for an explanation of pseudo-MPECs

 
 Astrometry: 
     P10OvCV  C2019 06 01S(734,RQn@aC_P1(ypm$fIAstrometryt)=?$cr`+N,7YXAV!-gbF51
     P10OvCV  C2019 06 01`7-m1jv1.jqhPKNYWe82wYhS9O@6W(wMO.L@Lh0wV:H*sYJ2EGE4F51
     P10OvCV  C2019 06 019=to-RQ+%'9CS3IuC+8j16:w[;CIp\gjQNB(3/My`#7^#CvZ3ap'F51
     P10OvCV  C2019 06 01_QB(U8v]oJ%Q^[;e[W%8Ic;F9u3!E:`Q6B,)`(f/,E:D[U/gi.6,F51
     P10OvCV |C2019 06 03I6FyI!x=;OS][6w=V,JFH7V2Sw!;3-d#S=L.iIkv`redacted;'3807
     P10OvCV |C2019 06 03]xCCyDK6]Cw^^dkIgy@m-6\1\2qcyUaCxdBv5YvLM0;kU2click.807
     P10OvCV |C2019 06 03^Ypuo'W(xt'-5J`yG\h3:\:$w,4;rBTR8)G?`)r41%I5e#\Hk[`S807
     P10OvCV KC2019 06 04uP[RF.OT:g];awEY1V8ZE$]()x;CQja\:\4i6N0siKp4^[DwojU-J04
     P10OvCV KC2019 06 04L[6JPY@@^F4tZW0bB),mSt,4?)]c8herej5sZ9I9;C4SjM$4]gV@J04
     P10OvCV  C2019 06 04.39714 22 03 23.79 +07 51 54.7    ~64Aq 22.9 GVNEOCPI52
     P10OvCV  C2019 06 04.41063 22 03 23.94 +07 51 57.1    ~64Aq 22.4 GVNEOCPI52
     P10OvCV  C2019 06 04.42265 22 03 24.08 +07 52 00.2    ~64Aq 22.8 GVNEOCPI52
     P10OvCV  C2019 06 04.43450 22 03 24.25 +07 52 03.8    ~64Aq 22.9 GVNEOCPI52
     P10OvCV  C2019 06 05M#MG/;fforly)*CW$2ZqM$+[nbbLvFm,explanation@@/Hhsc.eF51
     P10OvCV  C2019 06 058p`0MdBb[JfA+4]m`YmT?ht(6!SKgp=7V'tJUNFPYZ3AFNO?#H,tF51
     P10OvCV pC2019 06 06I_Ej/[?C9GZIu'y.ag5\gce-YiUecX$b#4X^S!8GIspDIS;jBxX_L01
     P10OvCV pC2019 06 06=e`t]IRae/OCn)y,P%FY#SunOML4jk,QeiTq+t'ZqO=p[Gr;Gst%L01
     P10OvCV  C2019 06 06Is0PyDAj+L/tZZYT;:j1vYIAZvo_Vs2fI1eD!pJdD+E$9:?+)eb?711
     P10OvCV  C2019 06 06`w;/\K(o8,Z#P\sU=`yAy:9?yC5d_.J\IYsNBfHiR^-9ZG8UGRI@711
     P10OvCV  C2019 06 06QF/o+=?B@S;no][q9$#RAekU2)d363-g3]sYV;y/0nXGOO`S-8Nr711
     P10OvCV ^C2019 06 07.57987422 03 57.902+08 03 52.39   ~67Kb 20.82GVNEOCP568
     P10OvCV ^C2019 06 07.58105622 03 57.912+08 03 52.65   ~67Kb 20.82GVNEOCP568
     P10OvCV ^C2019 06 07.58224122 03 57.923+08 03 52.92   ~67Kb 20.80GVNEOCP568

Station data:
(568) Mauna Kea  (N19.826116 W155.472200)  US/Hawaii.
(711) McDonald Observatory, Fort Davis  (N30.671481 W104.021500)  US/Texas.
   0.76-m f/3.0 reflector.
(807) Cerro Tololo Observatory, La Serena  (S30.169136 W70.805900)  Chile.
(F51) Pan-STARRS 1, Haleakala  (N20.707235 W156.255910)  US/Hawaii.
   Observers N. Primak, A. Schultz, S. Watters, J. Thiel, T. Goggia. Measurer
   PS1 Science Consortium. 1.8-m Ritchey-Chrétien + CCD.
(I52) Steward Observatory, Mt. Lemmon Station  (N32.442547 W110.788920)
   US/Arizona.  Observers T. A. Pruyne, B. M. Africano, E. J. Christensen, G.
   A. Farneth, D. C. Fuls, A. R. Gibbs, A. D. Grauer, H. Groeller, J. A.
   Johnson, R. A. Kowalski, S. M. Larson, G. J. Leonard, R. L. Seaman, F. C.
   Shelly. 1.0-m reflector + CCD.
(J04) ESA Optical Ground Station, Tenerife  (N28.300924 W16.511830)  Canary
   Islands (Spain).  Observer D. Abreu. Measurers M. Micheli, D. Koschny, E.
   Schwab, M. Busch, A. Knöfel. 1.0-m f/4.4 reflector + CCD.
(L01) Višnjan Observatory, Tičan  (N45.290900 E13.749300)  Croatia.
   Observers K. Korlević, E. Pettarin. Measurer E. Pettarin. 1.0-m f/2.9
   reflector + CCD.

Orbital elements:  P10OvCV
   Perihelion 2019 Jun 11.132749 +/- 704 TT =  3:11:09 (JD 2458645.632749)
Epoch 2019 Jun  7.0 TT = JDT 2458641.5   Ju: 0.0214           AutoNEOCP
M 359.64686643 +/- 59               (J2000 ecliptic)
n   0.08544762 +/- 0.0104           Peri.  120.01540 +/- 70
a   5.10508186 +/- 0.416            Node   202.26472 +/- 1.5
e   0.0517722 +/- 0.0951            Incl.   20.30625 +/- 0.26
P  11.53                   H 14.4   G  0.15   U  9.7  
q 4.84078047 +/- 0.176    Q 5.36938326 +/- 1.03
From 23 observations 2019 June 1-7; mean residual 0".28
Residuals in arcseconds: 
190601 F51  .02-  .05+    190604 J04  .04+  .43+    190606 L01  .24+  .62-    
190601 F51  .05-  .01-    190604 I52  .03+  .02-    190606 711  .23-  .13+    
190601 F51  .08-  .10+    190604 I52  .02-  .76-    190606 711  .21-  .00     
190601 F51  .02-  .05+    190604 I52  .04+  .45-    190606 711  .05-  .27+    
190603 807  .17+  .63-    190604 I52  .58+  .40+    190607 568  .10+  .09-    
190603 807  .02-  .04+    190605 F51  .02-  .03-    190607 568  .09+  .09-    
190603 807  .09+  .20+    190605 F51  .02-  .03+    190607 568  .10+  .08-    
190604 J04  .29-  .10+    190606 L01  .33-  .79+    

Ephemerides (geocentric):
Date (UTC) HH   RA              Dec         delta   r     elong  mag " sig PA
---- -- -- --  -------------   -----------  ------ ------ -----  --- ---- ---
2019 06 14 19  22 04 48.400   +08 28 23.87  4.4639 4.8408 105.8 21.8 3.47 114
2019 06 14 20  22 04 48.584   +08 28 31.70  4.4633 4.8408 105.9 21.8 3.50 114
2019 06 14 21  22 04 48.766   +08 28 39.53  4.4628 4.8408 105.9 21.8 3.53 114
2019 06 14 22  22 04 48.946   +08 28 47.35  4.4622 4.8408 105.9 21.8 3.56 114
2019 06 14 23  22 04 49.126   +08 28 55.15  4.4616 4.8408 106.0 21.8 3.60 114
2019 06 15 00  22 04 49.304   +08 29 02.96  4.4610 4.8408 106.0 21.8 3.63 114
2019 06 15 01  22 04 49.481   +08 29 10.75  4.4605 4.8408 106.1 21.8 3.66 114
2019 06 15 02  22 04 49.656   +08 29 18.53  4.4599 4.8408 106.1 21.8 3.70 114
2019 06 15 03  22 04 49.831   +08 29 26.31  4.4593 4.8408 106.1 21.8 3.73 114
2019 06 15 04  22 04 50.004   +08 29 34.08  4.4587 4.8408 106.2 21.8 3.76 114
2019 06 15 05  22 04 50.176   +08 29 41.84  4.4581 4.8408 106.2 21.8 3.80 114
2019 06 15 06  22 04 50.347   +08 29 49.59  4.4576 4.8408 106.2 21.8 3.83 113
2019 06 15 07  22 04 50.516   +08 29 57.34  4.4570 4.8408 106.3 21.8 3.86 113
2019 06 15 08  22 04 50.684   +08 30 05.08  4.4564 4.8408 106.3 21.8 3.90 113
2019 06 15 09  22 04 50.851   +08 30 12.80  4.4559 4.8408 106.3 21.8 3.93 113
2019 06 15 10  22 04 51.016   +08 30 20.52  4.4553 4.8408 106.4 21.8 3.97 113
2019 06 15 11  22 04 51.181   +08 30 28.24  4.4547 4.8408 106.4 21.8 4.00 113
2019 06 15 12  22 04 51.344   +08 30 35.94  4.4541 4.8408 106.4 21.8 4.04 113
2019 06 15 13  22 04 51.506   +08 30 43.64  4.4536 4.8408 106.5 21.8 4.07 113
2019 06 15 14  22 04 51.666   +08 30 51.33  4.4530 4.8408 106.5 21.8 4.11 113
2019 06 15 15  22 04 51.826   +08 30 59.01  4.4524 4.8408 106.6 21.8 4.14 113
2019 06 15 16  22 04 51.984   +08 31 06.68  4.4518 4.8408 106.6 21.8 4.18 113
2019 06 15 17  22 04 52.140   +08 31 14.34  4.4513 4.8408 106.6 21.8 4.22 113
2019 06 15 18  22 04 52.296   +08 31 22.00  4.4507 4.8408 106.7 21.8 4.25 113
2019 06 15 19  22 04 52.450   +08 31 29.65  4.4501 4.8408 106.7 21.8 4.29 113
2019 06 15 20  22 04 52.603   +08 31 37.29  4.4495 4.8408 106.7 21.8 4.32 113
2019 06 15 21  22 04 52.755   +08 31 44.92  4.4490 4.8408 106.8 21.8 4.36 113
2019 06 15 22  22 04 52.906   +08 31 52.54  4.4484 4.8408 106.8 21.8 4.40 113
2019 06 15 23  22 04 53.055   +08 32 00.16  4.4478 4.8408 106.8 21.8 4.44 113
2019 06 16 00  22 04 53.203   +08 32 07.76  4.4472 4.8408 106.9 21.8 4.47 112
2019 06 16 01  22 04 53.350   +08 32 15.36  4.4467 4.8408 106.9 21.8 4.51 112
2019 06 16 02  22 04 53.495   +08 32 22.95  4.4461 4.8408 107.0 21.8 4.55 112
2019 06 16 03  22 04 53.639   +08 32 30.54  4.4455 4.8408 107.0 21.8 4.59 112
2019 06 16 04  22 04 53.782   +08 32 38.11  4.4450 4.8408 107.0 21.8 4.62 112
2019 06 16 05  22 04 53.924   +08 32 45.68  4.4444 4.8408 107.1 21.8 4.66 112
2019 06 16 06  22 04 54.064   +08 32 53.23  4.4438 4.8408 107.1 21.8 4.70 112
2019 06 16 07  22 04 54.203   +08 33 00.78  4.4432 4.8408 107.1 21.8 4.74 112
2019 06 16 08  22 04 54.341   +08 33 08.33  4.4427 4.8408 107.2 21.8 4.78 112
2019 06 16 09  22 04 54.478   +08 33 15.86  4.4421 4.8408 107.2 21.8 4.82 112
2019 06 16 10  22 04 54.613   +08 33 23.39  4.4415 4.8408 107.2 21.8 4.86 112
2019 06 16 11  22 04 54.747   +08 33 30.90  4.4410 4.8408 107.3 21.8 4.89 112
2019 06 16 12  22 04 54.880   +08 33 38.41  4.4404 4.8408 107.3 21.8 4.93 112
2019 06 16 13  22 04 55.012   +08 33 45.91  4.4398 4.8408 107.3 21.8 4.97 112
2019 06 16 14  22 04 55.142   +08 33 53.40  4.4392 4.8408 107.4 21.8 5.01 112
2019 06 16 15  22 04 55.271   +08 34 00.89  4.4387 4.8408 107.4 21.8 5.05 112
2019 06 16 16  22 04 55.399   +08 34 08.36  4.4381 4.8408 107.5 21.8 5.09 112
2019 06 16 17  22 04 55.526   +08 34 15.83  4.4375 4.8408 107.5 21.8 5.13 112
2019 06 16 18  22 04 55.651   +08 34 23.29  4.4370 4.8408 107.5 21.8 5.17 112